Location: Unspecified
(0.0000°N, 0.0000°E)
Time: 20:45:44
(UTC+00:00)

Transit 4A - Pass Details

Date: 01 June 2022
Orbit: 864 x 980 km, 66.8° (Epoch: 26 June)

Event Time Altitude Azimuth Distance (km) Brightness Sun altitude
Rises 12:02:48 0° 357° (N) 3,535 11.2 67.9°
Reaches altitude 10° 12:05:33 10° 6° (N) 2,577 10.7 67.8°
Maximum altitude 12:10:55 35° 70° (ENE) 1,397 9.5 67.7°
Drops below altitude 10° 12:16:10 10° 134° (SE) 2,525 10.1 67.5°
Sets 12:18:50 0° 143° (SE) 3,455 10.7 67.3°
